{"data":{"norad_id":66721,"epoch":"2026-09-20T03:20:21.192288Z","epoch_age_seconds":49170,"freshness":"FRESH","line1":"1 66721U 25276BH  26263.13913417  .00004489  00000+0  20667-3 0  9990","line2":"2 66721  97.4099 334.9769 0005146  67.5170 292.6610 15.20801900 44847","mean_motion":15.208019,"eccentricity":0.0005146,"inclination_deg":97.4099,"raan_deg":334.9769,"arg_perigee_deg":67.517,"mean_anomaly_deg":292.661,"bstar":0.00020667,"rev_number":4484,"period_min":94.686888542157,"perigee_km":499.87926079618,"apogee_km":506.96175978577,"semimajor_km":6881.557510291,"source":"CELESTRAK","updated_at":"2026-09-20T09:00:34.750892Z"}}